Weather History for Hermiston, OR

Change the Weather History Date:

Friday, June 21, 2013

  Actual Average Record
Temperature  
Mean Temperature 61 °F -  
Max Temperature 70 °F 84 °F 100 °F (1970)
Min Temperature 53 °F 56 °F 41 °F (2014)
Degree Days  
Heating Degree Days 4    
Growing Degree Days 11 (Base 50)    
Moisture  
Dew Point 48 °F    
Average Humidity 67    
Maximum Humidity 90    
Minimum Humidity 42    
Precipitation  
Precipitation 0.04 in - - ()
Sea Level Pressure  
Sea Level Pressure 30.09 in    
Wind  
Wind Speed 5 mph (SW)    
Max Wind Speed 9 mph    
Max Gust Speed -    
Visibility 10 miles    
Events Rain    
Averages and records for this station are not official NWS values.
T = Trace of Precipitation, MM = Missing Value Source: NWS Daily Summary

Daily Weather History Graph

Daily Weather History Graph

Search for Another Location

Airport:

Trip Planner

Search our weather history database for the weather conditions in past years. The results will help you decide how hot, cold, wet, or windy it might be!

Date:

Astronomy

Jun. 21, 2013 Rise Set
Actual Time 5:07 AM PDT 8:50 PM PDT
Civil Twilight 4:28 AM PDT 9:29 PM PDT
Nautical Twilight 3:36 AM PDT 10:20 PM PDT
Astronomical Twilight 2:25 AM PDT 11:32 PM PDT
Moon 7:03 PM PDT (6/21) 3:31 AM PDT (6/21)
Length of Visible Light 17h 00m
Length of Day
15h 43m
Waxing Gibbous, 96% of the Moon is Illuminated
Jun 21
Waxing Gibbous
Jun 23
Full
Jun 29
Last Quarter
Jul 8
New
Jul 15
First Quarter

Hourly Weather History & Observations

Time (PDT) Temp. Dew Point Humidity Pressure Visibility Wind Dir Wind Speed Gust Speed Precip Events Conditions
12:53 AM 55.9 °F 48.9 °F 77% 30.07 in 10.0 mi SW 5.8 mph - 0.00 in Rain Light Rain
1:53 AM 54.0 °F 50.0 °F 86% 30.07 in 10.0 mi WSW 8.1 mph - 0.01 in Rain Light Rain
2:53 AM 54.0 °F 51.1 °F 90% 30.07 in 10.0 mi SW 9.2 mph - 0.02 in Rain Light Rain
3:53 AM 53.1 °F 50.0 °F 89% 30.07 in 10.0 mi SW 6.9 mph - 0.01 in Rain Light Rain
4:53 AM 53.1 °F 50.0 °F 89% 30.07 in 10.0 mi SSW 9.2 mph - 0.00 in Rain Light Rain
5:53 AM 53.1 °F 48.9 °F 86% 30.07 in 10.0 mi SW 6.9 mph - 0.00 in   Overcast
6:53 AM 54.0 °F 48.9 °F 83% 30.08 in 10.0 mi SW 6.9 mph - N/A   Overcast
7:53 AM 55.0 °F 50.0 °F 83% 30.10 in 10.0 mi SSW 6.9 mph - 0.00 in Rain Light Rain
8:53 AM 57.0 °F 48.9 °F 74% 30.10 in 10.0 mi SW 8.1 mph - 0.00 in   Overcast
9:53 AM 57.9 °F 48.9 °F 72% 30.10 in 10.0 mi SW 5.8 mph - N/A   Mostly Cloudy
10:51 AM 60.8 °F 48.2 °F 63% 30.10 in 10.0 mi West 4.6 mph - N/A   Overcast
10:53 AM 60.1 °F 48.9 °F 67% 30.10 in 10.0 mi WNW 4.6 mph - N/A   Overcast
11:53 AM 61.0 °F 48.9 °F 64% 30.11 in 10.0 mi Calm Calm - N/A   Overcast
12:05 PM 62.6 °F 48.2 °F 59% 30.11 in 10.0 mi West 4.6 mph - N/A   Overcast
12:17 PM 62.6 °F 48.2 °F 59% 30.11 in 10.0 mi Calm Calm - N/A   Overcast
12:24 PM 62.6 °F 48.2 °F 59% 30.11 in 10.0 mi NW 4.6 mph - 0.00 in Rain Light Rain
12:37 PM 62.6 °F 48.2 °F 59% 30.11 in 10.0 mi WNW 6.9 mph - 0.00 in Rain Light Rain
12:53 PM 62.1 °F 48.9 °F 62% 30.11 in 10.0 mi Variable 6.9 mph - 0.00 in Rain Light Rain
1:53 PM 64.0 °F 48.0 °F 56% 30.10 in 10.0 mi Calm Calm - 0.00 in   Overcast
2:53 PM 66.9 °F 46.0 °F 47% 30.09 in 10.0 mi Calm Calm - N/A   Partly Cloudy
3:53 PM 69.1 °F 45.0 °F 42% 30.09 in 10.0 mi NNE 3.5 mph - N/A   Mostly Cloudy
4:53 PM 68.0 °F 45.0 °F 43% 30.08 in 10.0 mi Calm Calm - N/A   Overcast
5:53 PM 68.0 °F 44.1 °F 42% 30.07 in 10.0 mi Calm Calm - N/A   Scattered Clouds
6:53 PM 68.0 °F 44.1 °F 42% 30.06 in 10.0 mi Calm Calm - N/A   Clear
7:53 PM 64.9 °F 48.0 °F 54% 30.06 in 10.0 mi ENE 3.5 mph - N/A   Mostly Cloudy
8:53 PM 60.1 °F 51.1 °F 72% 30.07 in 10.0 mi Calm Calm - N/A   Mostly Cloudy
9:53 PM 54.0 °F 46.9 °F 77% 30.08 in 10.0 mi East 3.5 mph - N/A   Mostly Cloudy
10:53 PM 54.0 °F 46.9 °F 77% 30.08 in 10.0 mi South 6.9 mph - N/A   Clear
11:53 PM 53.1 °F 46.0 °F 77% 30.08 in 10.0 mi SSE 6.9 mph - N/A   Clear